Regional Weather Roundup
Issued by NWS

Home | Current Version | Previous Version | Graphics & Text | Print | Product List | Glossary Off
Versions: 1 2 3 4 5 6 7 8 9 10 11 12 13 14 15 16 17 18 19 20 21 22 23 24 25 26 27 28 29 30 31 32 33 34 35 36 37 38 39 40 41 42 43 44 45 46 47 48 49 50

000
ASUS43 KTOP 221608
RWRKS

WEATHER ROUNDUP FOR KANSAS
NATIONAL WEATHER SERVICE GOODLAND KS
1100 AM CDT WED OCT 22 2014

NOTE:  "FAIR" INDICATES FEW OR NO CLOUDS BELOW 12,000 FEET WITH NO
SIGNIFICANT WEATHER AND/OR OBSTRUCTIONS TO VISIBILITY.

KSZ001>006-013>018-027>032-041>047-221700-
NORTHWEST KANSAS

CITY           SKY/WX    TMP DP  RH WIND       PRES   REMARKS
GOODLAND       CLOUDY    58  49  72 NW9       30.04S
HAYS           MOSUNNY   70  52  52 S17       30.04R
HILL CITY      LGT RAIN  65  54  67 S13       30.03R
RUSSELL        MOSUNNY   69  53  56 S20G28    30.03F
$$

KSZ061>065-074>080-084>089-221700-
SOUTHWEST KANSAS

CITY           SKY/WX    TMP DP  RH WIND       PRES   REMARKS
DODGE CITY     PTSUNNY   61  54  77 S17G24    30.06F
ELKHART          N/A     61  52  72 S10         N/A
GARDEN CITY    PTSUNNY   67  55  65 S17G25    30.03S
GREAT BEND     SUNNY     70  54  56 S22       30.06S
LIBERAL        CLOUDY    66  54  63 S21       30.08R
PRATT          SUNNY     68  50  52 S17       30.10S
$$

KSZ066>073-081>083-090>101-221700-
SOUTHEAST KANSAS

CITY           SKY/WX    TMP DP  RH WIND       PRES   REMARKS
CHANUTE        PTSUNNY   65  57  75 S8        30.19S
COFFEYVILLE    MOSUNNY   70  60  70 S8        30.18S
HUTCHINSON     SUNNY     70  54  56 S17       30.11R
MEDICINE LODGE   N/A     69  32  25 S10       30.11R
NEWTON         SUNNY     70  55  60 S15       30.15S
PARSONS        MOSUNNY   69  59  70 S7        30.20S
WICHITA INTL   MOSUNNY   72  56  57 S16       30.13S
WICHITA JABRA  SUNNY     71  56  58 S14       30.13S
WICHITA MCCONL SUNNY     71  58  63 S15       30.14S
WINFIELD       SUNNY     72  60  66 S13       30.16S
$$

KSZ007>012-019>026-033>040-048>060-102>105-221700-
NORTHEAST KANSAS

CITY           SKY/WX    TMP DP  RH WIND       PRES   REMARKS
CONCORDIA      SUNNY     69  56  62 S13       30.08S
EMPORIA        SUNNY     65  58  78 S12       30.16R
LAWRENCE       MOSUNNY   64  50  60 SE10      30.18S
MANHATTAN      SUNNY     73  56  54 S12       30.11S
MARYSVILLE     SUNNY     68  54  60 S8        30.11S
OLATHE IND     MOSUNNY   63  49  60 SE12      30.20R
OLATHE EXE     SUNNY     60  49  66 SE13      30.19S
SALINA         SUNNY     72  56  57 S15       30.10R
TOPEKA BILLARD SUNNY     66  54  65 SE10      30.16S
TOPEKA FORBES  SUNNY     66  53  63 SE14      30.16S
$$



USA.gov is the U.S. government's official web portal to all federal, state and local government web resources and services.